[Date Prev][Date Next][Thread Prev][Thread Next][Date Index][Thread Index]

[jamsat-news:1049] jas2info #125



=========================   最新情報   ==============================

        Last updated :Thu.18-Mar.-1999 17:30 (JST) #125

====================================================================
   
     衛星情報 FOシリーズの軌道要素、テレメトリ、QSOの状況等を
   まとめてみました.

  1)  FO−29(ふじ3号)は3月18日(木)15:33(JST)のパス
     の途中よりJAアナログ運用されております.テレメトリは力強くRS59
     で安定して聞こえました.
       
 ■ 軌道要素1:「jamsatーkeps:869」より
                 SB KEPS @ AMSAT  $ORB99071.N
                 2Line Orbital Elements 99071.AMSAT

  HR AMSAT ORBITAL ELEMENTS FOR AMATEUR SATELLITES IN NASA FORMAT
  FROM WA5QGD FORT WORTH,TX March 12, 1999
  SEND SUBSCRIBE/UNSUBSCRIBE TO majordomo@amsat.org ONLY
  BID: ORB99071.N
     
  DECODE 2-LINE ELSETS WITH THE FOLLOWING KEY:
  1 AAAAAU 00  0  0 BBBBB.BBBBBBBB  .CCCCCCCC  00000-0  00000-0 0  DDDZ
  2 AAAAA EEE.EEEE FFF.FFFF GGGGGGG HHH.HHHH III.IIII JJ.JJJJJJJJKKKKKZ
  KEY: A-CATALOGNUM B-EPOCHTIME C-DECAY D-ELSETNUM E-INCLINATION F-RAAN
  G-ECCENTRICITY H-ARGPERIGEE I-MNANOM J-MNMOTION K-ORBITNUM Z-CHECKSUM

  TO ALL RADIO AMATEURS BT

   FO-29
   1 24278U 96046B   99069.90753196  .00000024  00000-0  62441-4 0 02452
   2 24278 098.5473 034.2382 0351579 348.8266 010.5210 13.52663063126520
 
 ■ 軌道要素2:「jamsatーkeps:870」より
                 SB KEPS @ AMSAT  $ORB99071.O
                 Orbital Elements  99071.OSCAR

  HR AMSAT ORBITAL ELEMENTS FOR OSCAR SATELLITES
  FROM WA5QGD FORT WORTH,TX March 12, 1999
  SEND SUBSCRIBE/UNSUBSCRIBE TO majordomo@amsat.org ONLY
  BID: ORB99071.O
  TO ALL RADIO AMATEURS BT

  Satellite: FO-29
  Catalog number: 24278
  Epoch time:      99069.90753196
  Element set:    0245
  Inclination:      098.5473 deg
  RA of node:       034.2382 deg
  Eccentricity:    0.0351579
  Arg of perigee:   348.8266 deg
  Mean anomaly:     010.5210 deg
  Mean motion:   13.52663063 rev/day
  Decay rate:        2.4e-07 rev/day^2
  Epoch rev:           12652
  Checksum:              320
 -----------------------------------------------------------
 2)FO−29(ふじ3号)の 3月18日(木)のJAアナログテレメトリの
    一部分は次のようになっていました.
    
    AS12753C    18Mar99
    JST  16:25 - 16:31

 HI HI AE C7 88 55 00 68 1A 00 35 74                      96 AC A9 AA AB A7 
 HI HI AE C7 88 55 00 68 1A 00 09 00 65 AD 7E 60 93 90 B0 8A AB A8 AA AB A8
 HI HI AE C7 88 55 00 68 1A 0D 09 00 42 94 77 5F 93 90 B0 84 AB A7 A9 AB A8
 HI HI AE C7 88 55 00 68 1A 0D 09 00 61 9B 86 60 93 90 B0 8F AB A7 A9 AA A8 
 HI HI AE C7 88 55 00 68 1A 0D 09 00 4E A9    60 93 90 B0 7F AB A7 A9 AA A8 
 HI HI AE C7 88 55 00 68 1A 0D 09 00 4D 8E 96 60 93 90 B0 69 AB A7 A9 AA A7 
 HI HI AE C7 88 55 00 68 1A 0D 09 00    AA 62 60 93 90 B0 60 AA A7 A9 AA A8 
 HI HI AE C7 88 55 00 68 1A 0D 09 00 3B 97 90 60 93 90 B0 7E AA A7 A9 AA A8 

   AS12752C    18Mar99
   JST 14:41 - 14:48

 HI HI AE C7 08 51 16 67 1A 0D 00 00 6F 87 7A 60 93 90 B0 5F AB A9 A7 A9 A8 
 HI HI AE C7 88 51 16 68 1A 0D 00 00 4D B4 79 60 93 90 B0 8A AB A8 A8 A9 A8 
 HI HI AE C7 88 55 00 68 1A 0D 00 00 57 70 88 60 93 90 B0 80 AA A8 A7 A9 A8 
 HI HI AE C7 88 55 00 68 1A 0D 00 00 7A B8 64 60 94 91 B0 82 AA A8 A8 A9 A8 
 HI HI AE C7 88 55 00 68 1A 0D 00 00 32 7D 8B 60 94 91 B  8B AA A8 A8 A8 A8 
 HI HI AE C7 88 55 00 68 1A 0D 00 00 98 93 64 60 94 91 B0 63 AA A8 A7 A8 A8 
 HI HI AE C7 88 55 00 68 1A 0D 00 00 
 
 3)  JDディジタルテレメトリのAS12753C    18Mar99
    JST  16:25 - 16:31の最後の行の換算例.

  テレメトリ    内   容	       換算値  単 位
 3C	磁気センサーZ軸	=	28921.6	nT
 3D	磁気センサX軸	=	74019.6	nT
 4A	太陽電池発生電流	=	 1411.8	mA
 4B	B充放電電流	=	 -118.4	mA
 4C	B端子電圧	=	   15.8	V
 4D	B中間端子電圧	=	    6.9	V
 5A	バス電圧 	=	   17.3	V
 5B	JTA送信電力	=	  720.9	mW
 5C 	構体温度1	=	   15.9	℃
 5D	構体温度2	=	   17.0	℃
 6A	構体温度3	=	   16.2	℃
 6B	構体温度4	=	   15.9	℃
 6C	Bセル温度	=	   16.6	℃

 *計算処理は OFFICE 97 を使用. 
===============================================================================

  4)FO−20(ふじ2号)のCWテレメトリは3月12日(金)17:59(JST)の
     パスではやはり単一トーンの連続音から唸りを伴った連続音、さらにゆらぎのある信号に
     なっいましたがQSOは通常どうり行えます.
---------------------------------------------------------------------------

 ■ 軌道要素1 :出典は「ふじ3号」に同じ. 
  
 FO-20
  1 20480U 90013C   99070.10112750  .00000027  00000-0  13145-3 0  1256
  2 20480  99.0341 283.4581 0541168  26.9054 335.9045 12.83250532425757

 ■ 軌道要素2 :出典は「ふじ3号」に同じ.  
               
  Satellite: FO-20
  Catalog number: 20480
  Epoch time:      99070.10112750
  Element set:     125
  Inclination:       99.0341 deg
  RA of node:       283.4581 deg
  Eccentricity:    0.0541168
  Arg of perigee:    26.9054 deg
  Mean anomaly:     335.9045 deg
  Mean motion:   12.83250532 rev/day
  Decay rate:        2.7e-07 rev/day^2
  Epoch rev:           42575
  Checksum:              277

  ====================    FO-20のQSOの状況 ==========================
  =====================================================================
 5)JARL のホームページに新しい運用追加予定が記載されていましたのでご紹介します.

        ■ ふじ3号/FO−29 ■  
  
  ふじ3号(JAS−2) 運用予定

  ☆☆デジトーカ運用をさらに3月1日〜5日,19日〜23日に運用決定☆☆ 
  *** 運用日程について ***     

  ☆3月 8日 〜 3月18日  デジタル系1200bps運用
   ☆3月19日 〜 3月23日  デジトーカ運用(:FM音声メッセージ送信)
   3月23日 〜 3月30日  アナログ系運用

  *** 運用予定の変更について ***    

 ☆:3月1日から5日までデジトーカ運用を急遽行うことが決 まりました。
  また,3月19日から3月23日も同様デジトーカ運用を行います。

   デジトーカの周波数は435.91MHzです。ハンディー機での受信も十分
 可能ですので是非トライして下さい。
 デジトーカを受信してJAS−2ベリカードをもらうぉ〜!!

        ■ ふじ2号/FO−20 ■      
            「ふじ2号」 現況                                                                                               
   JAS-1b/FO-20(ふじ2号)の不具合発生について
    JAS-1b(ふじ2号)のCWテレメトリ信号に,1997年10月12日12時
 (JST)の日本上空通過時,3桁の数字が繰り返されるはずが3個の長音の
  繰り返しとなっているという異常が発見されました。この不具合は次の通過時
  からは回復していましたが13日15時20分の通過時に再び観測されました。
  衛星のアナログ系中継モード動作は異常が無く,正常時のテレメトリ内容からは
  衛星の動作に異常は認められません。従って,直ちに衛星のミッションに影響す
  ることは無いと予想されますので,当面はアナログ系中継モードを継続します。
  衛星は既に打ち上げてから7年8ヶ月を経ておりますので,今後は監視を強化す
  る予定です。アマチュア各位のレポートをお待ちします.   
  
  以上  http://www.jarl.or.jp/Japanese/3_Fuji/jr1nvu.htm  より.
                                           
   =============   JAS-2 (ふじ3号)と現在までの情報   ===========  
  A.電話によるふじ3号の運用情報
      社団法人日本アマチュア連盟によるサービス
           TEL .   03− 3942 − 1000
  B.アマチュア無線FAXサービス
      JARLによるふじ3号の軌道情報(オービットカレンダー)
         FAX No.  03− 3233 −0055
  C.WWWブラウザで情報を簡単に見れる人のためにJAS−2
     ふじ3号の衛星としての運用されるまでの名前)の概要、打ち上げ
     までの状況、運用中における状況を説明したホームページを紹介し
     ておきます.
    1)社団法人日本アマチュア無線連盟(JARL)のホームページ

          http://www.jarl.or.jp/Japanese/3_Fuji/jr1nvu.htm
 
    2)宇宙開発事業団(NASDA)ホームページ 
          http://www.nasda.go.jp/
         打上げ衛星 :地球観測プラットフォーム技術衛星(ADEOS) 
                       アマチュア衛星3号(JAS-2)
          http://yyy.tksc.nasda.go.jp/Home/Press/Press-j/jas-2_j.html        

  D.JAMSATによる軌道情報の活用
        JAMSATのホームページまたはjamsat−kepsの軌道要素より
      衛星の軌道情報を得る.
     JAMSATホームページ
               URL    http://www.jamsat.or.jp
       上記ホームページでは各地で行われるアマチュア通信衛星に関する
      ミューティングのお知らせや世界のアマチュア衛星に関する情報が
      満載されています.
   
 =========================================================================
       JAMSATのメンバーのご協力によりJH6MME(高山 秀造)が
    執筆・編集を担当しております.ご指摘の意見、疑問やこのようにしたら
    というアイデアがありましたら小さなことでもかまいませんので気軽に下
    記アドレスまでご連絡ください.jamsat−newsからjas2
    infoへの転載をJH4PHW局坂井さんに担当して頂いております.
                    Eーmail : jh6mme@jamsat.or.jp : jh4phw@jamsat.or.jp
 ===============================   END  ===============================